User: anonymous   Login
Location: Unspecified
(0.0000°N, 0.0000°E)
Time: 06:19:59
(UTC+00:00)
Language:

LAPAN A3 - Orbit

View from above orbital plane
View from above orbital plane
View from above satellite
View from above satellite

Ground track
Ground track

The orbit data is extracted from the following two-line orbital elements,

1 41603U 16040E   18116.71608116  .00000180  00000-0  11633-4 0  9999
2 41603  97.4165 179.1605 0015194  63.1095  50.8837 15.19545158102267
Epoch (UTC): 26 April 2018 17:11:09
Eccentricity: 0.0015194
inclination: 97.4165°
perigee height: 497 km
apogee height: 517 km
right ascension of ascending node: 179.1605°
argument of perigee: 63.1095°
revolutions per day: 15.19545158
mean anomaly at epoch: 50.8837°
orbit number at epoch: 10226

The dashed part of the orbit path shows where the satellite is in the earth's shadow,  

DLR